Regional Weather Roundup
Issued by NWS Memphis, TN

Home | Current Version | Previous Version | Text Only | Print | Product List | Glossary On
Versions: 1 2 3 4 5 6 7 8 9 10 11 12 13 14 15 16 17 18 19 20 21 22 23 24 25 26 27 28 29 30 31 32 33 34 35 36 37 38 39 40 41 42 43 44 45 46 47 48 49 50
000
ASUS44 KMEG 040710
RWRMEG
MEMPHIS CWA HOURLY WEATHER ROUNDUP
NATIONAL WEATHER SERVICE MEMPHIS TN
200 AM CDT TUE AUG 04 2015

...WEST TENNESSEE...

CITY           SKY/WX    TMP DP  RH WIND       PRES   REMARKS
MEMPHIS INTL   MOCLDY    80  70  71 CALM      29.93F
NWS MEMPHIS      N/A     75 N/A N/A MISG        N/A
JACKSON        PTCLDY    73  70  90 CALM      29.94S FOG
LEXINGTON      CLEAR     72  72 100 CALM      29.94S
DYERSBURG        N/A    N/A N/A N/A MISG        N/A
PARIS          CLEAR     70  66  88 CALM      29.95S


...EASTERN ARKANSAS...

CITY           SKY/WX    TMP DP  RH WIND       PRES   REMARKS
JONESBORO      PTCLDY    77  71  82 W3        29.92S
WEST MEMPHIS   PTCLDY    75  73  93 CALM      29.92S
BATESVILLE     CLEAR     75  70  83 CALM      29.93S
NEWPORT        PTCLDY    77  73  87 S3        29.93F
WALNUT RIDGE   PTCLDY    77  72  83 CALM      29.93R
BLYTHEVILLE    CLEAR     78  74  87 S3        29.93S
SEARCY         CLEAR     72  70  93 CALM      29.94S
STUTTGART      PTCLDY    79  72  78 CALM      29.93S
PINE BLUFF     PTCLDY    74  70  87 CALM      29.93S
MONTICELLO     CLEAR     74  71  91 CALM      29.92S


...NORTH MISSISSIPPI...

CITY           SKY/WX    TMP DP  RH WIND       PRES   REMARKS
TUPELO         PTCLDY    77  73  87 CALM      29.93S
OLIVE BRANCH     N/A     75  73  94 CALM      29.94S
TUNICA         PTCLDY    73  72  94 CALM      29.93S
CLARKSDALE     PTCLDY    73  73 100 CALM      29.93S
CORINTH          N/A     73  70  88 CALM      29.93S
GREENWOOD      CLEAR     72  69  90 NE3       29.92S
COLUMBUS       CLEAR     72  70  91 CALM      29.93S
STARKVILLE     FAIR      70  68  94 CALM      29.94S
GOLDEN TRIANGL CLEAR     72  64  78 CALM      29.93S


...SOUTHEAST MISSOURI...

CITY           SKY/WX    TMP DP  RH WIND       PRES   REMARKS
WEST PLAINS    PTCLDY    72  68  87 CALM      29.99S
POPLAR BLUFF   CLEAR     74  73  97 CALM      29.91S
CAPE GIRARDEAU PTCLDY    74  73  97 CALM      29.92S


...NORTHWEST ALABAMA...

CITY           SKY/WX    TMP DP  RH WIND       PRES   REMARKS
MUSCLE SHOALS  MOCLDY    74  71  91 CALM      29.96S


...MIDDLE TENNESSEE...

CITY           SKY/WX    TMP DP  RH WIND       PRES   REMARKS
NASHVILLE      CLEAR     76  70  82 CALM      29.96S
CLARKSVILLE    CLEAR     72  69  90 CALM      29.94S
COLUMBIA       CLEAR     73  73 100 CALM      29.95S


...WESTERN KENTUCKY...

CITY           SKY/WX    TMP DP  RH WIND       PRES   REMARKS
PADUCAH        CLEAR     75  71  87 CALM      29.92S
FORT CAMPBELL  CLEAR     75  70  85 W2        29.94S


...CENTRAL ARKANSAS...

CITY           SKY/WX    TMP DP  RH WIND       PRES   REMARKS
LITTLE ROCK    PTCLDY    78  70  76 CALM      29.93S


SKY/WX REPORTED AS FAIR MEANS FEW OR NO CLOUDS BELOW
12 THOUSAND FEET.



USA.gov is the U.S. government's official web portal to all federal, state and local government web resources and services.